EW7146 Weather Reports


time (UTC)temp
F
wind
direction
speed
knots
gust
knots
rain 1hr
in
rain 24hr
in
rain mn
in
humidity
%
barometer
mb
20260504050500 62 209 0.9 3.5 0.00 0.00 0.00 42 1022.6
20260504050001 62 137 1.7 3.5 0.00 0.00 0.00 42 1022.5
20260504045459 62 157 0.0 4.3 0.00 0.00 0.00 42 1022.4
20260504045001 62 289 2.6 4.3 0.00 0.00 0.00 43 1022.4
20260504044500 62 104 0.0 1.7 0.00 0.00 0.00 39 1022.3
20260504044000 63 244 0.0 1.7 0.00 0.00 0.00 39 1022.2
20260504043500 63 248 0.9 1.7 0.00 0.00 0.00 38 1022.2
20260504043000 63 234 0.9 2.6 0.00 0.00 0.00 39 1022.2
20260504042943 62 285 1.7 2.6 0.00 0.00 0.00 40 1022.1
20260504041959 62 221 0.9 1.7 0.00 0.00 0.00 41 1022.1
20260504041501 63 241 0.0 1.7 0.00 0.00 0.00 39 1022.1
20260504041000 62 238 0.9 1.7 0.00 0.00 0.00 40 1021.9
20260504040500 62 233 0.0 0.9 0.00 0.00 0.00 40 1022.0
20260504040224 63 231 0.0 1.7 0.00 0.00 0.00 40 1022.0
20260504035726 63 231 0.0 1.7 0.00 0.00 0.00 41 1021.9
20260504034958 63 234 0.0 0.9 0.00 0.00 0.00 41 1021.9
20260504034459 63 234 0.0 0.9 0.00 0.00 0.00 41 1021.8
20260504033959 64 4 0.0 1.7 0.00 0.00 0.00 40 1021.7
20260504033458 65 4 0.0 1.7 0.00 0.00 0.00 38 1021.6
20260504033002 65 223 0.0 0.9 0.00 0.00 0.00 37 1021.6
20260504032724 65 226 0.0 0.9 0.00 0.00 0.00 37 1021.6
20260504032000 65 238 0.0 0.9 0.00 0.00 0.00 39 1021.5
20260504031457 66 234 0.0 0.9 0.00 0.00 0.00 39 1021.4
20260504031218 67 254 0.0 0.0 0.00 0.00 0.00 37 1021.3
20260504030502 67 254 0.0 0.9 0.00 0.00 0.00 35 1021.3
20260504025958 69 254 0.0 0.9 0.00 0.00 0.00 35 1021.3
20260504025457 69 298 0.0 0.9 0.00 0.00 0.00 33 1021.1
20260504025217 70 271 0.0 0.9 0.00 0.00 0.00 32 1021.0
20260504024458 70 228 0.0 0.9 0.00 0.00 0.00 32 1021.0
20260504023958 71 228 0.9 0.9 0.00 0.00 0.00 32 1021.0
20260504023458 72 237 0.0 0.9 0.00 0.00 0.00 30 1021.0
20260504023214 74 237 0.9 1.7 0.00 0.00 0.00 29 1020.9
20260504022456 75 254 0.0 1.7 0.00 0.00 0.00 27 1020.9
20260504021957 77 254 0.0 1.7 0.00 0.00 0.00 27 1020.9
20260504021717 78 247 0.9 1.7 0.00 0.00 0.00 27 1021.0
20260504021219 79 254 0.0 1.7 0.00 0.00 0.00 26 1021.0
20260504020726 80 269 0.0 4.3 0.00 0.00 0.00 26 1021.1
20260504015958 81 275 0.9 5.2 0.00 0.00 0.00 23 1021.1
20260504015456 82 289 3.5 5.2 0.00 0.00 0.00 20 1021.1
20260504014958 82 241 2.6 4.3 0.00 0.00 0.00 20 1021.1
20260504014456 83 269 0.9 2.6 0.00 0.00 0.00 21 1021.1
20260504013955 83 285 0.9 7.8 0.00 0.00 0.00 21 1021.1
20260504013719 83 269 1.7 7.8 0.00 0.00 0.00 21 1021.1
20260504012955 84 276 0.9 4.3 0.00 0.00 0.00 19 1021.1
20260504012456 84 254 0.9 6.1 0.00 0.00 0.00 19 1021.1
20260504011955 84 282 0.9 6.1 0.00 0.00 0.00 19 1021.1
20260504011457 84 262 0.0 4.3 0.00 0.00 0.00 19 1021.3
20260504010955 85 285 1.7 4.3 0.00 0.00 0.00 19 1021.3
20260504010457 85 316 1.7 4.3 0.00 0.00 0.00 17 1021.3
20260504010007 85 274 0.9 7.8 0.00 0.00 0.00 18 1021.3
20260504005455 84 305 1.7 9.6 0.00 0.00 0.00 17 1021.4
20260504004955 84 266 2.6 9.6 0.00 0.00 0.00 17 1021.4
20260504004713 85 281 1.7 7.8 0.00 0.00 0.00 17 1021.5
20260504003955 85 282 3.5 7.8 0.00 0.00 0.00 17 1021.5
20260504003455 85 307 3.5 7.8 0.00 0.00 0.00 17 1021.6
20260504002956 85 272 1.7 6.1 0.00 0.00 0.00 18 1021.6
20260504002453 85 316 1.7 4.3 0.00 0.00 0.00 16 1021.6
20260504001955 85 32 0.9 5.2 0.00 0.00 0.00 18 1021.6
20260504001454 85 264 0.9 9.6 0.00 0.00 0.00 17 1021.6
20260504000954 84 255 3.5 9.6 0.00 0.00 0.00 17 1021.7
20260504000454 85 252 3.5 8.7 0.00 0.00 0.00 17 1021.7
20260503235954 85 262 5.2 8.7 0.00 0.00 0.00 16 1021.7
20260503235454 85 278 3.5 7.8 0.00 0.00 0.00 16 1021.8
20260503234954 85 235 0.9 7.8 0.00 0.00 0.00 18 1021.8
20260503234454 85 290 1.7 7.8 0.00 0.00 0.00 16 1021.8
20260503234218 85 251 0.0 5.2 0.00 0.00 0.00 18 1021.9
20260503233711 85 299 2.6 7.8 0.00 0.00 0.00 17 1022.0
20260503232952 85 279 3.5 8.7 0.00 0.00 0.00 16 1021.9
20260503232453 85 269 4.3 8.7 0.00 0.00 0.00 16 1022.0
20260503231957 85 262 2.6 7.8 0.00 0.00 0.00 16 1022.1
20260503231456 85 268 4.3 6.1 0.00 0.00 0.00 16 1022.2
20260503230953 85 290 2.6 9.6 0.00 0.00 0.00 17 1022.2
20260503230453 85 266 3.5 9.6 0.00 0.00 0.00 16 1022.3
20260503225953 86 337 0.0 4.3 0.00 0.00 0.00 16 1022.3
20260503225452 86 100 0.0 4.3 0.00 0.00 0.00 17 1022.4
20260503224952 85 233 0.0 4.3 0.00 0.00 0.00 18 1022.5
20260503224452 85 214 2.6 7.8 0.00 0.00 0.00 16 1022.6
20260503223951 85 333 3.5 7.8 0.00 0.00 0.00 15 1022.7
20260503223452 86 281 1.7 4.3 0.00 0.00 0.00 17 1022.9
20260503222951 86 245 1.7 4.3 0.00 0.00 0.00 16 1023.0
20260503222453 86 319 1.7 5.2 0.00 0.00 0.00 17 1023.0
20260503221951 85 20 1.7 6.1 0.00 0.00 0.00 17 1023.0
20260503221453 85 347 0.9 6.1 0.00 0.00 0.00 17 1023.1
20260503220952 85 69 0.9 5.2 0.00 0.00 0.00 17 1023.2
20260503220450 86 283 1.7 5.2 0.00 0.00 0.00 18 1023.3
20260503215951 85 355 0.9 3.5 0.00 0.00 0.00 16 1023.4
20260503215934 84 289 1.7 5.2 0.00 0.00 0.00 15 1023.3
20260503215218 84 133 0.9 5.2 0.00 0.00 0.00 16 1023.4
20260503214711 85 10 1.7 5.2 0.00 0.00 0.00 15 1023.5
20260503213952 85 44 1.7 3.5 0.00 0.00 0.00 16 1023.7
20260503213451 85 298 0.9 5.2 0.00 0.00 0.00 17 1023.7
20260503212952 85 343 1.7 7.8 0.00 0.00 0.00 18 1023.6
20260503212932 85 254 3.5 7.8 0.00 0.00 0.00 16 1023.9
20260503211949 84 324 0.0 5.2 0.00 0.00 0.00 19 1023.7
20260503211449 84 159 1.7 6.1 0.00 0.00 0.00 16 1023.7
20260503210949 83 306 0.9 6.1 0.00 0.00 0.00 17 1023.9
20260503210450 84 268 0.9 3.5 0.00 0.00 0.00 17 1023.9
20260503205949 84 348 0.0 2.6 0.00 0.00 0.00 18 1024.0
20260503205450 83 302 0.0 6.1 0.00 0.00 0.00 17 1024.0
20260503205211 83 80 2.6 6.1 0.00 0.00 0.00 18 1024.1
20260503204451 83 49 2.6 5.2 0.00 0.00 0.00 19 1024.1
20260503203948 84 37 0.9 4.3 0.00 0.00 0.00 19 1024.2
20260503203713 84 44 3.5 6.1 0.00 0.00 0.00 19 1024.4
20260503202946 83 62 2.6 6.1 0.00 0.00 0.00 18 1024.5
20260503202448 83 48 0.9 6.1 0.00 0.00 0.00 17 1024.5
20260503201950 83 72 3.5 6.1 0.00 0.00 0.00 19 1024.6
20260503201453 82 79 0.9 6.1 0.00 0.00 0.00 21 1024.7
20260503200950 82 272 1.7 5.2 0.00 0.00 0.00 18 1024.8
20260503200454 83 109 0.9 4.3 0.00 0.00 0.00 20 1025.0
20260503195948 82 127 0.0 3.5 0.00 0.00 0.00 20 1025.0
20260503195448 81 100 1.7 3.5 0.00 0.00 0.00 18 1025.1
20260503195216 81 353 0.9 3.5 0.00 0.00 0.00 19 1025.2
20260503194447 80 94 2.6 6.1 0.00 0.00 0.00 19 1025.4
20260503193947 80 125 2.6 6.1 0.00 0.00 0.00 19 1025.5
20260503193449 81 63 2.6 5.2 0.00 0.00 0.00 19 1025.5
20260503192947 81 90 3.5 5.2 0.00 0.00 0.00 19 1025.6
20260503192448 81 103 3.5 5.2 0.00 0.00 0.00 21 1025.6
20260503191947 80 63 2.6 5.2 0.00 0.00 0.00 21 1025.7
20260503191447 80 106 2.6 5.2 0.00 0.00 0.00 22 1025.7
20260503190947 80 111 1.7 4.3 0.00 0.00 0.00 20 1025.8
20260503190443 79 56 1.7 4.3 0.00 0.00 0.00 22 1026.0
20260503185947 79 110 1.7 4.3 0.00 0.00 0.00 21 1026.1
20260503185713 79 73 1.7 4.3 0.00 0.00 0.00 22 1026.2
20260503184947 79 62 0.9 2.6 0.00 0.00 0.00 25 1026.2
20260503184446 78 28 0.0 2.6 0.00 0.00 0.00 27 1026.3
20260503183948 77 65 0.9 2.6 0.00 0.00 0.00 25 1026.4
20260503183445 77 18 0.0 3.5 0.00 0.00 0.00 28 1026.5
20260503182946 76 128 0.0 3.5 0.00 0.00 0.00 28 1026.6
20260503182446 76 82 1.7 2.6 0.00 0.00 0.00 30 1026.6
20260503181945 75 134 0.9 1.7 0.00 0.00 0.00 30 1026.7
20260503181446 75 104 0.9 2.6 0.00 0.00 0.00 30 1026.8
20260503181206 74 134 0.9 2.6 0.00 0.00 0.00 32 1026.9
20260503180447 74 90 0.0 2.6 0.00 0.00 0.00 34 1026.9
20260503175946 73 79 0.9 2.6 0.00 0.00 0.00 33 1027.0
20260503175447 72 292 0.9 1.7 0.00 0.00 0.00 33 1027.1
20260503174945 72 330 0.9 1.7 0.00 0.00 0.00 36 1027.2
20260503174445 71 72 0.0 1.7 0.00 0.00 0.00 36 1027.2
20260503173942 71 68 0.9 1.7 0.00 0.00 0.00 34 1027.3
20260503173441 71 307 0.0 1.7 0.00 0.00 0.00 35 1027.5
20260503172943 70 106 0.0 2.6 0.00 0.00 0.00 35 1027.6
20260503172444 69 34 0.0 3.5 0.00 0.00 0.00 36 1027.6
20260503171946 69 13 1.7 3.5 0.00 0.00 0.00 36 1027.8
20260503171444 69 290 0.0 2.6 0.00 0.00 0.00 37 1027.8
20260503171208 68 38 1.7 2.6 0.00 0.00 0.00 39 1027.8
20260503170444 67 298 0.9 1.7 0.00 0.00 0.00 40 1027.8
20260503170205 67 276 0.9 2.6 0.00 0.00 0.00 40 1027.9
20260503150942 55 144 0.0 0.0 0.00 0.00 0.00 65 1029.4
20260503150443 54 144 0.0 0.0 0.00 0.00 0.00 66 1029.5
20260503140155 42 52 0.0 0.0 0.00 0.00 0.00 86 1029.7
20260503130937 39 227 0.0 0.0 0.00 0.00 0.00 90 1029.6
20260503130658 38 227 0.0 0.0 0.00 0.00 0.00 89 1029.7
20260503130532 39 227 0.0 0.0 0.00 0.00 0.00 90 1029.7
20260503110437 42 224 0.0 0.0 0.00 0.00 0.00 82 1029.7
20260503090433 48 210 0.0 0.0 0.00 0.00 0.00 72 1029.5
20260503080949 49 216 0.0 0.0 0.00 0.00 0.00 70 1029.3
20260503080808 49 210 0.0 0.0 0.00 0.00 0.00 69 1029.4
20260503072932 50 202 0.0 0.0 0.00 0.00 0.00 68 1029.3
20260503072654 51 199 0.0 0.0 0.00 0.00 0.00 68 1029.2
20260503071933 50 219 0.0 0.0 0.00 0.00 0.00 68 1029.1
20260503071431 51 199 0.0 0.0 0.00 0.00 0.00 67 1029.1
20260503071159 51 204 0.0 0.0 0.00 0.00 0.00 67 1029.3
20260503070430 51 196 0.0 0.0 0.00 0.00 0.00 66 1029.2
20260503070153 51 199 0.0 0.0 0.00 0.00 0.00 66 1029.1
20260503054930 54 248 1.7 2.6 0.00 0.00 0.00 63 1028.5
20260503054428 54 173 0.9 1.7 0.00 0.00 0.00 62 1028.4
20260503054153 54 213 0.0 0.0 0.00 0.00 0.00 61 1028.5
20260503053428 54 234 0.0 0.0 0.00 0.00 0.00 61 1028.4
20260503052929 54 210 0.0 0.0 0.00 0.00 0.00 62 1028.5
20260503052428 54 227 0.0 0.0 0.00 0.00 0.00 63 1028.4